Location: Newark
(54.3386°S, 169.8415°W)
Time: 14:13:00
(UTC+00:00)

S-56A Canister/Altair - Visible Passes

Search period start: 16 October 2019 00:00
Search period end: 26 October 2019 00:00
Orbit: 633 x 2499 km, 38.9° (Epoch: 15 October)

Date Brightness Start Highest point End Pass type
(mag) Time Alt. Az. Time Alt. Az. Time Alt. Az.
16 Oct 9.8 07:35:24 10° WNW 07:38:17 13° NNW 07:40:49 10° N visible
17 Oct 9.9 07:01:39 10° WNW 07:05:48 16° NNW 07:09:16 10° N visible
21 Oct 10.4 06:55:00 10° WNW 06:57:36 12° NW 06:59:57 10° NNW visible
